RYR363C LEMI-EGHH

Flight info

Callsign RYR363C
Flight time N/A
Altitude 36000
Route ALT N851 MITOS N608 COMPI Y90 USKAR DCT MOPAS DCT GIROM DCT AGN DCT SECHE DCT UVELI DCT CNA DCT MANAK UY110 ORIST Y110 THRED
Aircraft B38M/M-SDE1FGHILORVWXY/HB1

Departure

Time 2026-05-05 11:27
Airport Region of Murcia International Airport (LEMI)

Arrival

Time N/A
Airport Bournemouth Airport (EGHH)
Time Latitude Longitude Altitude Speed Heading
2026-05-05 10:51 37.80485 -1.12966 652 ft 0 kts 314°
2026-05-05 11:17 37.80472 -1.12950 652 ft 4 kts 314°
2026-05-05 11:17 37.80453 -1.12926 653 ft 4 kts 314°
2026-05-05 11:17 37.80435 -1.12907 656 ft 4 kts 348°
2026-05-05 11:17 37.80413 -1.12914 652 ft 4 kts 39°
2026-05-05 11:18 37.80396 -1.12934 654 ft 1 kts 47°
2026-05-05 11:18 37.80396 -1.12935 652 ft 0 kts 47°
2026-05-05 11:21 37.80399 -1.12931 652 ft 2 kts 47°
2026-05-05 11:21 37.80417 -1.12907 652 ft 6 kts 45°
2026-05-05 11:21 37.80451 -1.12864 655 ft 8 kts 46°
2026-05-05 11:22 37.80461 -1.12805 653 ft 8 kts 105°
2026-05-05 11:22 37.80426 -1.12752 652 ft 9 kts 138°
2026-05-05 11:22 37.80402 -1.12685 652 ft 9 kts 74°
2026-05-05 11:22 37.80444 -1.12621 652 ft 10 kts 45°
2026-05-05 11:23 37.80499 -1.12551 654 ft 12 kts 45°
2026-05-05 11:23 37.80563 -1.12467 654 ft 14 kts 46°
2026-05-05 11:23 37.80638 -1.12371 653 ft 16 kts 45°
2026-05-05 11:23 37.80722 -1.12264 652 ft 18 kts 46°
2026-05-05 11:24 37.80815 -1.12145 655 ft 20 kts 46°
2026-05-05 11:24 37.80916 -1.12015 652 ft 22 kts 45°
2026-05-05 11:24 37.81024 -1.11875 652 ft 23 kts 45°
2026-05-05 11:24 37.81141 -1.11727 652 ft 24 kts 45°
2026-05-05 11:25 37.81262 -1.11569 653 ft 26 kts 46°
2026-05-05 11:25 37.81367 -1.11436 653 ft 18 kts 46°
2026-05-05 11:25 37.81399 -1.11332 652 ft 10 kts 114°
2026-05-05 11:25 37.81340 -1.11282 651 ft 10 kts 176°
2026-05-05 11:26 37.81263 -1.11282 650 ft 12 kts 185°
2026-05-05 11:26 37.81216 -1.11320 651 ft 0 kts 224°
2026-05-05 11:26 37.81181 -1.11364 653 ft 30 kts 225°
2026-05-05 11:27 37.80850 -1.11790 649 ft 105 kts 225°
2026-05-05 11:27 37.80184 -1.12644 651 ft 165 kts 224°
2026-05-05 11:27 37.79335 -1.13761 1082 ft 183 kts 226°
2026-05-05 11:27 37.78449 -1.14970 1763 ft 192 kts 224°
2026-05-05 11:28 37.77535 -1.16200 2660 ft 189 kts 223°
2026-05-05 11:28 37.76550 -1.17310 3484 ft 192 kts 213°
2026-05-05 11:28 37.75370 -1.18208 4145 ft 205 kts 208°
2026-05-05 11:28 37.74043 -1.19136 4629 ft 231 kts 209°
2026-05-05 11:29 37.72632 -1.20244 5354 ft 245 kts 217°
2026-05-05 11:29 37.71300 -1.21638 6240 ft 253 kts 221°
2026-05-05 11:29 37.69971 -1.23137 7141 ft 259 kts 222°
2026-05-05 11:29 37.68617 -1.24661 8015 ft 265 kts 221°
2026-05-05 11:30 37.67226 -1.26232 8310 ft 272 kts 222°
2026-05-05 11:30 37.65905 -1.27921 9143 ft 268 kts 234°
2026-05-05 11:30 37.65251 -1.30114 10036 ft 274 kts 266°
2026-05-05 11:30 37.65655 -1.32450 10955 ft 277 kts 298°
2026-05-05 11:31 37.67032 -1.34151 11958 ft 285 kts 328°
2026-05-05 11:31 37.68954 -1.34913 12803 ft 297 kts 348°
2026-05-05 11:31 37.71050 -1.34699 13597 ft 312 kts 15°
2026-05-05 11:31 37.72902 -1.33203 14332 ft 326 kts 46°
2026-05-05 11:32 37.74045 -1.30712 15035 ft 332 kts 73°
2026-05-05 11:32 37.74745 -1.27947 15702 ft 339 kts 69°
2026-05-05 11:32 37.75629 -1.25153 16370 ft 345 kts 67°
2026-05-05 11:32 37.76573 -1.22348 17055 ft 349 kts 66°
2026-05-05 11:33 37.77556 -1.19511 17705 ft 354 kts 66°
2026-05-05 11:33 37.78567 -1.16643 18332 ft 359 kts 65°
2026-05-05 11:33 37.79602 -1.13751 18936 ft 364 kts 63°
2026-05-05 11:33 37.81048 -1.11130 19554 ft 363 kts 43°
2026-05-05 11:34 37.82885 -1.08923 20091 ft 368 kts 40°
2026-05-05 11:34 37.84767 -1.06690 20587 ft 375 kts 40°
2026-05-05 11:34 37.86688 -1.04426 21187 ft 376 kts 40°
2026-05-05 11:34 37.88615 -1.02163 21728 ft 381 kts 40°
2026-05-05 11:35 37.90602 -0.99830 21911 ft 397 kts 40°
2026-05-05 11:35 37.92669 -0.97397 22011 ft 414 kts 40°
2026-05-05 11:35 37.94816 -0.94872 22252 ft 426 kts 40°
2026-05-05 11:35 37.96824 -0.92510 22746 ft 428 kts 40°
2026-05-05 11:36 37.99015 -0.89933 23253 ft 432 kts 40°
2026-05-05 11:36 38.01232 -0.87323 23728 ft 436 kts 40°
2026-05-05 11:36 38.03463 -0.84692 24152 ft 440 kts 40°
2026-05-05 11:36 38.05719 -0.82030 24599 ft 444 kts 40°
2026-05-05 11:37 38.07987 -0.79353 25042 ft 447 kts 40°
2026-05-05 11:37 38.10273 -0.76652 25454 ft 451 kts 40°
2026-05-05 11:37 38.12576 -0.73928 25888 ft 454 kts 40°
2026-05-05 11:37 38.14894 -0.71183 26283 ft 458 kts 40°
2026-05-05 11:38 38.17231 -0.68414 26680 ft 461 kts 40°
2026-05-05 11:38 38.19579 -0.65629 27071 ft 464 kts 40°
2026-05-05 11:38 38.21944 -0.62822 27445 ft 467 kts 40°
2026-05-05 11:38 38.24325 -0.59993 27815 ft 470 kts 40°
2026-05-05 11:39 38.26492 -0.56849 28143 ft 476 kts 56°
2026-05-05 11:39 38.27985 -0.53088 28543 ft 478 kts 68°
2026-05-05 11:39 38.29287 -0.49174 28797 ft 483 kts 68°
2026-05-05 11:39 38.30589 -0.45210 29131 ft 486 kts 68°
2026-05-05 11:40 38.31875 -0.41224 29457 ft 488 kts 68°
2026-05-05 11:40 38.33158 -0.37210 29766 ft 491 kts 68°
2026-05-05 11:40 38.34446 -0.33166 30077 ft 494 kts 68°
2026-05-05 11:40 38.35746 -0.29102 30390 ft 496 kts 68°
2026-05-05 11:41 38.37096 -0.25046 30706 ft 498 kts 67°
2026-05-05 11:41 38.38452 -0.20970 31026 ft 500 kts 67°
2026-05-05 11:41 38.39805 -0.16883 31324 ft 502 kts 68°
2026-05-05 11:41 38.41182 -0.12771 31601 ft 505 kts 64°
2026-05-05 11:42 38.43017 -0.08971 31884 ft 503 kts 48°
2026-05-05 11:42 38.45453 -0.05883 32133 ft 499 kts 33°
2026-05-05 11:42 38.48391 -0.03591 32308 ft 493 kts 19°
2026-05-05 11:42 38.51626 -0.02099 32513 ft 484 kts
2026-05-05 11:43 38.54888 -0.01603 32741 ft 475 kts 355°
2026-05-05 11:43 38.58200 -0.01422 32950 ft 477 kts 353°
2026-05-05 11:43 38.61518 -0.01325 33224 ft 477 kts 353°
2026-05-05 11:43 38.64840 -0.01271 33486 ft 479 kts 352°
2026-05-05 11:44 38.68182 -0.01234 33754 ft 480 kts 352°
2026-05-05 11:44 38.71513 -0.01205 34110 ft 479 kts 352°
2026-05-05 11:44 38.74849 -0.01180 34458 ft 478 kts 352°
2026-05-05 11:44 38.78177 -0.01156 34779 ft 478 kts 352°
2026-05-05 11:45 38.81507 -0.01133 35026 ft 479 kts 352°
2026-05-05 11:45 38.84840 -0.01110 35335 ft 478 kts 352°
2026-05-05 11:45 38.88165 -0.01089 35612 ft 479 kts 352°
2026-05-05 11:45 38.91494 -0.01067 35892 ft 478 kts 352°
2026-05-05 11:46 38.94825 -0.01045 36166 ft 478 kts 352°
2026-05-05 11:46 38.98145 -0.01023 36427 ft 478 kts 352°
2026-05-05 11:46 39.01475 -0.01001 36656 ft 478 kts 352°
2026-05-05 11:46 39.04794 -0.00979 36964 ft 476 kts 352°
2026-05-05 11:47 39.08091 -0.00957 37353 ft 471 kts 352°
2026-05-05 11:47 39.11361 -0.00936 37645 ft 469 kts 352°
2026-05-05 11:47 39.14624 -0.00914 37839 ft 469 kts 352°
2026-05-05 11:47 39.17886 -0.00892 37953 ft 470 kts 352°
2026-05-05 11:48 39.24424 -0.00849 37940 ft 468 kts 352°
2026-05-05 11:48 39.30941 -0.00806 37941 ft 468 kts 352°
2026-05-05 11:49 39.37461 0.00166 37944 ft 483 kts 10°
2026-05-05 11:49 39.43964 0.02511 37945 ft 486 kts
2026-05-05 11:50 39.50468 0.04899 37946 ft 486 kts
2026-05-05 11:50 39.56935 0.07291 37918 ft 487 kts
2026-05-05 11:51 39.63444 0.09706 37915 ft 486 kts
2026-05-05 11:51 39.69951 0.12123 37927 ft 487 kts
2026-05-05 11:52 39.76473 0.14551 37925 ft 487 kts
2026-05-05 11:52 39.82994 0.16984 37926 ft 488 kts
2026-05-05 11:53 39.89518 0.19422 37925 ft 487 kts
2026-05-05 11:53 39.96043 0.21866 37936 ft 488 kts
2026-05-05 11:54 40.02566 0.24311 37934 ft 488 kts
2026-05-05 11:54 40.09094 0.26763 37935 ft 488 kts
2026-05-05 11:55 40.15617 0.29217 37931 ft 487 kts
2026-05-05 11:55 40.22136 0.31673 37932 ft 487 kts
2026-05-05 11:56 40.28656 0.34136 37937 ft 487 kts
2026-05-05 11:56 40.35176 0.36609 37941 ft 488 kts
2026-05-05 11:57 40.41694 0.39085 37948 ft 488 kts
2026-05-05 11:57 40.48217 0.41569 37939 ft 488 kts
2026-05-05 11:58 40.53638 0.43637 37934 ft 488 kts
2026-05-05 11:58 40.60149 0.46126 37931 ft 487 kts
2026-05-05 11:59 40.66653 0.48617 37936 ft 487 kts
2026-05-05 11:59 40.73155 0.51111 37933 ft 487 kts
2026-05-05 12:00 40.79671 0.53618 37940 ft 487 kts 10°
2026-05-05 12:00 40.86186 0.56128 37942 ft 487 kts 10°
2026-05-05 12:01 40.92696 0.58642 37947 ft 487 kts 10°
2026-05-05 12:01 40.99157 0.61142 37940 ft 486 kts 10°
2026-05-05 12:02 41.05658 0.63662 37950 ft 488 kts 10°
2026-05-05 12:02 41.12175 0.66193 37949 ft 487 kts 10°
2026-05-05 12:03 41.18689 0.68730 37942 ft 487 kts 10°
2026-05-05 12:03 41.25188 0.71264 37945 ft 487 kts 11°
2026-05-05 12:04 41.31696 0.73808 37940 ft 487 kts 11°
2026-05-05 12:04 41.38191 0.76351 37946 ft 487 kts 11°
2026-05-05 12:05 41.44699 0.78905 37950 ft 487 kts 11°
2026-05-05 12:05 41.51198 0.81461 37952 ft 487 kts 11°
2026-05-05 12:06 41.57718 0.84030 37948 ft 491 kts 11°
2026-05-05 12:06 41.64294 0.86628 37956 ft 492 kts 11°
2026-05-05 12:07 41.70855 0.89224 37967 ft 492 kts 11°
2026-05-05 12:07 41.77422 0.91829 37966 ft 492 kts 11°
2026-05-05 12:08 41.83988 0.94439 37967 ft 492 kts 11°
2026-05-05 12:08 41.90548 0.97050 37960 ft 491 kts 11°
2026-05-05 12:09 41.97097 0.99665 37954 ft 490 kts 11°
2026-05-05 12:09 42.03642 1.02284 37958 ft 491 kts 12°
2026-05-05 12:10 42.10176 1.04902 37958 ft 489 kts 12°
2026-05-05 12:10 42.13408 1.06028 37930 ft 483 kts
2026-05-05 12:10 42.16706 1.06152 37944 ft 468 kts 349°
2026-05-05 12:11 42.23232 1.05585 37933 ft 470 kts 349°
2026-05-05 12:11 42.29766 1.04921 37943 ft 470 kts 349°
2026-05-05 12:12 42.36299 1.04219 37945 ft 470 kts 348°
2026-05-05 12:12 42.42827 1.03512 37962 ft 471 kts 349°
2026-05-05 12:13 42.49349 1.02803 37949 ft 471 kts 349°
2026-05-05 12:13 42.55889 1.02089 37934 ft 471 kts 349°
2026-05-05 12:14 42.62426 1.01375 37948 ft 472 kts 349°
2026-05-05 12:14 42.68963 1.00659 37953 ft 471 kts 349°
2026-05-05 12:15 42.75496 0.99943 37937 ft 471 kts 349°
2026-05-05 12:15 42.82024 0.99226 37962 ft 471 kts 349°
2026-05-05 12:16 42.88564 0.98506 37938 ft 471 kts 349°
2026-05-05 12:16 42.95100 0.97786 37962 ft 471 kts 349°
2026-05-05 12:17 43.01634 0.97065 37947 ft 471 kts 349°
2026-05-05 12:17 43.08166 0.96342 37951 ft 471 kts 349°
2026-05-05 12:18 43.14707 0.95616 37953 ft 472 kts 349°
2026-05-05 12:18 43.21246 0.94890 37952 ft 471 kts 350°
2026-05-05 12:19 43.27746 0.94165 37957 ft 471 kts 350°
2026-05-05 12:19 43.34280 0.93435 37954 ft 471 kts 350°
2026-05-05 12:20 43.40828 0.92703 37953 ft 471 kts 350°
2026-05-05 12:20 43.47365 0.91970 37955 ft 471 kts 350°
2026-05-05 12:21 43.53908 0.91234 37949 ft 471 kts 350°
2026-05-05 12:21 43.60448 0.90498 37948 ft 472 kts 350°
2026-05-05 12:22 43.66991 0.89760 37954 ft 472 kts 350°
2026-05-05 12:22 43.73526 0.89020 37954 ft 471 kts 350°
2026-05-05 12:23 43.80064 0.88279 37954 ft 471 kts 351°
2026-05-05 12:23 43.86594 0.87519 37951 ft 470 kts 347°
2026-05-05 12:24 43.89712 0.86434 37956 ft 456 kts 332°
2026-05-05 12:24 43.92611 0.84672 37958 ft 457 kts 331°
2026-05-05 12:24 43.98420 0.81066 37965 ft 457 kts 330°
2026-05-05 12:25 44.04185 0.77370 37954 ft 457 kts 330°
2026-05-05 12:25 44.09969 0.73627 37970 ft 459 kts 330°
2026-05-05 12:26 44.15751 0.69876 37961 ft 458 kts 330°
2026-05-05 12:26 44.21496 0.66142 37966 ft 458 kts 330°
2026-05-05 12:27 44.27276 0.62378 37955 ft 458 kts 330°
2026-05-05 12:27 44.33054 0.58606 37971 ft 459 kts 330°
2026-05-05 12:28 44.38832 0.54825 37967 ft 459 kts 330°
2026-05-05 12:28 44.44605 0.51030 37978 ft 459 kts 330°
2026-05-05 12:29 44.50378 0.47206 37974 ft 459 kts 330°
2026-05-05 12:29 44.56142 0.43379 37977 ft 459 kts 330°
2026-05-05 12:30 44.61907 0.39546 37978 ft 459 kts 330°
2026-05-05 12:30 44.67677 0.35700 37958 ft 459 kts 330°
2026-05-05 12:31 44.73445 0.31847 37965 ft 459 kts 330°
2026-05-05 12:31 44.79205 0.27990 37963 ft 459 kts 330°
2026-05-05 12:32 44.84974 0.24119 37961 ft 459 kts 330°
2026-05-05 12:32 44.90735 0.20245 37967 ft 459 kts 330°
2026-05-05 12:33 44.96500 0.16359 37967 ft 459 kts 330°
2026-05-05 12:33 45.02263 0.12467 37958 ft 459 kts 330°
2026-05-05 12:34 45.08027 0.08562 37960 ft 459 kts 331°
2026-05-05 12:34 45.13802 0.04642 37959 ft 460 kts 331°
2026-05-05 12:35 45.19570 0.00719 37953 ft 460 kts 331°
2026-05-05 12:35 45.25338 -0.03213 37960 ft 459 kts 332°
2026-05-05 12:36 45.31027 -0.07102 37955 ft 456 kts 332°
2026-05-05 12:36 45.36750 -0.11022 37947 ft 456 kts 332°
2026-05-05 12:37 45.42472 -0.14950 37939 ft 457 kts 332°
2026-05-05 12:37 45.48189 -0.18883 37948 ft 456 kts 332°
2026-05-05 12:38 45.53914 -0.22831 37944 ft 457 kts 332°
2026-05-05 12:38 45.59638 -0.26787 37942 ft 457 kts 332°
2026-05-05 12:39 45.65347 -0.30780 37935 ft 456 kts 327°
2026-05-05 12:39 45.70367 -0.36170 37933 ft 453 kts 320°
2026-05-05 12:40 45.75333 -0.41726 37938 ft 453 kts 319°
2026-05-05 12:40 45.80280 -0.47310 37931 ft 452 kts 319°
2026-05-05 12:41 45.85224 -0.52908 37935 ft 453 kts 319°
2026-05-05 12:41 45.89336 -0.57573 37937 ft 453 kts 319°
2026-05-05 12:42 45.94275 -0.63190 37925 ft 453 kts 319°
2026-05-05 12:42 45.99223 -0.68829 37925 ft 453 kts 319°
2026-05-05 12:43 46.04161 -0.74470 37920 ft 454 kts 320°
2026-05-05 12:43 46.09110 -0.80138 37917 ft 455 kts 320°
2026-05-05 12:44 46.14064 -0.85826 37916 ft 455 kts 320°
2026-05-05 12:44 46.19009 -0.91514 37908 ft 455 kts 320°
2026-05-05 12:45 46.23952 -0.97216 37907 ft 455 kts 320°
2026-05-05 12:45 46.28898 -1.02936 37906 ft 455 kts 320°
2026-05-05 12:46 46.33807 -1.08626 37906 ft 455 kts 320°
2026-05-05 12:46 46.38739 -1.14355 37907 ft 455 kts 320°
2026-05-05 12:47 46.43675 -1.20104 37899 ft 455 kts 320°
2026-05-05 12:47 46.48605 -1.25859 37897 ft 455 kts 320°
2026-05-05 12:48 46.53529 -1.31621 37892 ft 455 kts 319°
2026-05-05 12:48 46.58452 -1.37393 37886 ft 455 kts 320°
2026-05-05 12:49 46.61098 -1.39908 37879 ft 456 kts 333°
2026-05-05 12:49 46.63957 -1.41897 37885 ft 457 kts 332°
2026-05-05 12:49 46.69667 -1.45996 37891 ft 458 kts 333°
2026-05-05 12:50 46.75392 -1.50064 37885 ft 458 kts 333°
2026-05-05 12:50 46.81118 -1.54138 37885 ft 457 kts 333°
2026-05-05 12:51 46.86937 -1.57857 37860 ft 458 kts 347°
2026-05-05 12:51 46.93270 -1.58877 37881 ft 460 kts 354°
2026-05-05 12:52 46.99653 -1.59608 37885 ft 460 kts 355°
2026-05-05 12:52 47.06035 -1.60268 37891 ft 460 kts 355°
2026-05-05 12:53 47.12414 -1.60920 37888 ft 459 kts 356°
2026-05-05 12:53 47.18780 -1.61692 37888 ft 459 kts 354°
2026-05-05 12:54 47.28282 -1.62953 37886 ft 458 kts 355°
2026-05-05 12:55 47.34637 -1.63801 37886 ft 459 kts 354°
2026-05-05 12:55 47.40975 -1.64705 37887 ft 458 kts 354°
2026-05-05 12:56 47.47339 -1.65608 37896 ft 458 kts 354°
2026-05-05 12:56 47.53687 -1.66511 37897 ft 458 kts 354°
2026-05-05 12:57 47.60028 -1.67415 37896 ft 458 kts 354°
2026-05-05 12:57 47.66373 -1.68322 37896 ft 458 kts 354°
2026-05-05 12:58 47.72716 -1.69231 37901 ft 458 kts 355°
2026-05-05 12:58 47.79059 -1.70142 37907 ft 458 kts 354°
2026-05-05 12:59 47.85396 -1.71054 37908 ft 458 kts 355°
2026-05-05 12:59 47.91739 -1.71969 37907 ft 458 kts 354°
2026-05-05 13:00 48.01254 -1.73347 37915 ft 458 kts 355°
2026-05-05 13:01 48.13959 -1.74057 37915 ft 457 kts
2026-05-05 13:01 48.20324 -1.74140 37916 ft 457 kts 360°
2026-05-05 13:02 48.26689 -1.74233 37915 ft 457 kts 360°
2026-05-05 13:02 48.33056 -1.74326 37915 ft 458 kts 360°
2026-05-05 13:03 48.39425 -1.74422 37924 ft 457 kts 360°
2026-05-05 13:03 48.45756 -1.74516 37926 ft 457 kts 360°
2026-05-05 13:04 48.52118 -1.74611 37934 ft 457 kts 360°
2026-05-05 13:04 48.58417 -1.74706 37308 ft 449 kts 360°
2026-05-05 13:05 48.61544 -1.74753 36689 ft 449 kts
2026-05-05 13:05 48.64661 -1.74799 36158 ft 446 kts
2026-05-05 13:05 48.67756 -1.74846 35655 ft 443 kts
2026-05-05 13:05 48.70834 -1.74893 35139 ft 441 kts
2026-05-05 13:06 48.73890 -1.74938 34643 ft 438 kts
2026-05-05 13:06 48.76927 -1.74984 34138 ft 435 kts
2026-05-05 13:06 48.79946 -1.75030 33639 ft 433 kts
2026-05-05 13:06 48.82953 -1.75076 33135 ft 430 kts
2026-05-05 13:07 48.85933 -1.75121 32641 ft 427 kts
2026-05-05 13:07 48.88898 -1.75166 32154 ft 424 kts
2026-05-05 13:07 48.91839 -1.75133 31635 ft 422 kts
2026-05-05 13:07 48.94769 -1.75000 31128 ft 420 kts
2026-05-05 13:08 48.97673 -1.74883 30680 ft 416 kts
2026-05-05 13:08 49.00561 -1.74773 30215 ft 414 kts
2026-05-05 13:08 49.03429 -1.74666 29746 ft 411 kts
2026-05-05 13:08 49.06282 -1.74561 29278 ft 409 kts
2026-05-05 13:09 49.09118 -1.74456 28819 ft 406 kts
2026-05-05 13:09 49.11928 -1.74352 28369 ft 403 kts
2026-05-05 13:09 49.14726 -1.74247 27924 ft 401 kts
2026-05-05 13:09 49.17509 -1.74143 27484 ft 398 kts
2026-05-05 13:10 49.20270 -1.74040 27048 ft 396 kts
2026-05-05 13:10 49.22979 -1.73939 26626 ft 393 kts
2026-05-05 13:10 49.25704 -1.73838 26203 ft 390 kts
2026-05-05 13:10 49.28442 -1.73736 25787 ft 387 kts
2026-05-05 13:11 49.31127 -1.73635 25374 ft 385 kts
2026-05-05 13:11 49.33762 -1.73536 24968 ft 382 kts
2026-05-05 13:11 49.36411 -1.73437 24560 ft 379 kts
2026-05-05 13:11 49.39040 -1.73338 24154 ft 377 kts
2026-05-05 13:12 49.41657 -1.73239 23752 ft 375 kts
2026-05-05 13:12 49.44255 -1.73141 23352 ft 372 kts
2026-05-05 13:12 49.46833 -1.73044 22955 ft 370 kts
2026-05-05 13:12 49.49406 -1.72947 22564 ft 368 kts
2026-05-05 13:13 49.51952 -1.72851 22173 ft 366 kts
2026-05-05 13:13 49.54486 -1.72756 21788 ft 363 kts
2026-05-05 13:13 49.57006 -1.72660 21401 ft 361 kts
2026-05-05 13:13 49.59510 -1.72594 21004 ft 359 kts 359°
2026-05-05 13:14 49.61971 -1.73191 20582 ft 359 kts 349°
2026-05-05 13:14 49.64408 -1.73929 20225 ft 355 kts 350°
2026-05-05 13:14 49.66830 -1.74646 19858 ft 352 kts 351°
2026-05-05 13:14 49.69228 -1.75356 19487 ft 350 kts 351°
2026-05-05 13:15 49.71611 -1.76060 19117 ft 347 kts 351°
2026-05-05 13:15 49.73969 -1.76758 18751 ft 342 kts 351°
2026-05-05 13:15 49.76266 -1.77437 18402 ft 330 kts 351°
2026-05-05 13:15 49.78483 -1.78094 18060 ft 319 kts 351°
2026-05-05 13:16 49.80647 -1.78735 17721 ft 315 kts 351°
2026-05-05 13:16 49.82794 -1.79372 17376 ft 314 kts 351°
2026-05-05 13:16 49.84933 -1.80008 17039 ft 311 kts 351°
2026-05-05 13:16 49.87054 -1.80639 16677 ft 310 kts 351°
2026-05-05 13:17 49.89170 -1.81269 16035 ft 309 kts 351°
2026-05-05 13:17 49.91284 -1.81898 15430 ft 308 kts 351°
2026-05-05 13:17 49.93385 -1.82525 14829 ft 306 kts 351°
2026-05-05 13:17 49.95468 -1.83146 14232 ft 304 kts 351°
2026-05-05 13:18 49.97514 -1.83756 13713 ft 300 kts 351°
2026-05-05 13:18 49.99536 -1.84360 13340 ft 291 kts 352°
2026-05-05 13:18 50.01501 -1.84814 12976 ft 281 kts 354°
2026-05-05 13:18 50.03418 -1.85236 12687 ft 277 kts 354°
2026-05-05 13:19 50.05312 -1.85659 12387 ft 274 kts 354°
2026-05-05 13:19 50.07194 -1.86084 12093 ft 272 kts 354°
2026-05-05 13:19 50.09063 -1.86509 11796 ft 271 kts 354°
2026-05-05 13:19 50.10919 -1.86932 11503 ft 268 kts 354°
2026-05-05 13:20 50.12777 -1.87356 11212 ft 273 kts 354°
2026-05-05 13:20 50.14669 -1.87788 10904 ft 277 kts 353°
2026-05-05 13:20 50.16584 -1.88225 10598 ft 277 kts 353°
2026-05-05 13:20 50.18494 -1.88662 10288 ft 277 kts 353°
2026-05-05 13:21 50.20394 -1.89097 10004 ft 274 kts 353°
2026-05-05 13:21 50.22268 -1.89526 9736 ft 271 kts 353°
2026-05-05 13:21 50.24125 -1.89952 9432 ft 269 kts 353°
2026-05-05 13:21 50.25971 -1.90376 9128 ft 267 kts 353°
2026-05-05 13:22 50.27802 -1.90797 8830 ft 265 kts 353°
2026-05-05 13:22 50.29626 -1.91215 8535 ft 263 kts 353°
2026-05-05 13:22 50.31435 -1.91631 8237 ft 262 kts 353°
2026-05-05 13:22 50.33229 -1.92045 7937 ft 260 kts 353°
2026-05-05 13:23 50.34991 -1.92451 7649 ft 258 kts 353°
2026-05-05 13:23 50.36762 -1.92860 7355 ft 257 kts 353°
2026-05-05 13:23 50.38525 -1.93265 7051 ft 255 kts 353°
2026-05-05 13:23 50.40277 -1.93669 6763 ft 254 kts 353°
2026-05-05 13:24 50.42027 -1.94074 6467 ft 247 kts 353°
2026-05-05 13:24 50.43690 -1.94460 6207 ft 237 kts 353°
2026-05-05 13:24 50.45260 -1.94885 5942 ft 228 kts 346°
2026-05-05 13:24 50.46744 -1.95727 5701 ft 226 kts 339°
2026-05-05 13:25 50.48187 -1.96699 5447 ft 224 kts 338°
2026-05-05 13:25 50.49612 -1.97673 5200 ft 223 kts 338°
2026-05-05 13:25 50.51027 -1.98619 4966 ft 219 kts 340°
2026-05-05 13:25 50.52433 -1.99503 4740 ft 216 kts 340°
2026-05-05 13:26 50.53820 -2.00377 4486 ft 214 kts 340°
2026-05-05 13:26 50.55197 -2.01246 4241 ft 212 kts 340°
2026-05-05 13:26 50.56404 -2.02009 4072 ft 205 kts 340°